DW5759 Weather Reports


Display with metric or nautical units.
time (UTC)temp
F
wind
direction
speed
MPH
gust
MPH
rain 1hr
in
rain 24hr
in
rain mn
in
humidity
%
barometer
mb
20260901101550 67 295 0.0 0.0 0.00 0.03 0.01 95 1014.9
20260901100007 67 295 0.0 0.0 0.00 0.03 0.01 95 1015.0
20260901094520 68 295 0.0 0.0 0.00 0.03 0.01 95 1014.9
20260901093021 67 265 0.0 0.0 0.00 0.03 0.01 95 1015.0
20260901091534 68 265 0.0 0.0 0.00 0.03 0.01 95 1015.1
20260901090030 68 265 0.0 0.0 0.00 0.03 0.01 95 1015.4
20260901084508 67 265 0.0 0.0 0.00 0.03 0.01 95 1015.2
20260901083015 67 265 0.0 0.0 0.00 0.03 0.01 95 1015.6
20260901081523 67 265 0.0 0.0 0.00 0.03 0.01 95 1015.4
20260901080056 67 265 0.0 0.0 0.00 0.03 0.01 95 1015.6
20260901074530 67 265 0.0 0.0 0.00 0.03 0.01 95 1015.9
20260901073015 67 278 0.0 0.0 0.00 0.03 0.01 95 1016.0
20260901071518 67 278 0.0 0.0 0.00 0.03 0.01 95 1016.1
20260901070029 67 274 0.0 0.0 0.00 0.03 0.01 95 1016.2
20260901064504 67 274 0.0 0.0 0.00 0.03 0.01 95 1016.3
20260901063011 67 274 0.0 0.0 0.01 0.03 0.01 95 1016.3
20260901061516 67 274 0.0 0.0 0.01 0.03 0.01 95 1016.4
20260901060020 67 274 0.0 0.0 0.01 0.03 0.01 95 1016.7
20260901054533 67 274 0.0 0.0 0.01 0.03 0.01 95 1016.7
20260901053006 67 274 0.0 0.0 0.00 0.02 0.00 94 1016.9
20260901051512 67 274 0.0 0.0 0.00 0.02 0.00 94 1016.8
20260901050018 67 274 0.0 0.0 0.00 0.02 0.00 94 1017.1
20260901044523 67 274 0.0 0.0 0.00 0.02 0.00 94 1017.4
20260901043033 67 275 0.0 0.0 0.00 0.02 0.00 94 1017.3
20260901041507 67 275 0.0 0.0 0.00 0.02 0.00 94 1017.2
20260901040013 67 275 0.0 0.0 0.00 0.02 0.00 94 1017.3
20260901034534 67 275 0.0 0.0 0.00 0.02 0.02 94 1017.3
20260901033026 67 275 0.0 0.0 0.00 0.02 0.02 94 1017.5
20260901031530 67 275 0.0 0.0 0.00 0.02 0.02 94 1017.5
20260901030016 68 275 0.0 0.0 0.00 0.02 0.02 94 1017.6
20260901024536 67 274 0.0 0.0 0.00 0.02 0.02 94 1017.7
20260901023027 67 274 0.0 0.0 0.00 0.02 0.02 94 1017.7
20260901021530 67 274 0.0 0.0 0.00 0.02 0.02 93 1017.8
20260901020035 67 274 0.0 0.0 0.00 0.02 0.02 93 1018.0
20260901014514 67 276 0.0 0.0 0.00 0.02 0.02 93 1017.8
20260901013018 68 276 0.0 0.0 0.01 0.02 0.02 93 1017.7
20260901011529 67 276 0.0 0.0 0.01 0.02 0.02 93 1017.7
20260901010029 67 274 0.0 0.0 0.01 0.02 0.02 93 1017.8
20260901004534 68 274 0.0 0.0 0.02 0.02 0.02 92 1017.9
20260901003013 68 274 0.0 0.0 0.01 0.01 0.01 92 1017.9
20260901001525 69 274 0.0 0.0 0.01 0.01 0.01 91 1017.9
20260901000024 69 274 0.0 0.0 0.01 0.01 0.01 91 1017.8
20260831234532 69 274 0.0 0.0 0.00 0.00 0.00 91 1017.9
20260831233033 69 274 0.0 0.0 0.00 0.00 0.00 90 1017.8
20260831231550 69 271 0.0 0.0 0.00 0.00 0.00 90 1017.8
20260831230027 70 271 0.0 0.0 0.00 0.00 0.00 91 1018.0
20260831224509 70 271 0.0 0.0 0.00 0.00 0.00 90 1018.2
20260831223007 70 270 0.0 0.0 0.00 0.00 0.00 90 1018.2
20260831221533 70 270 0.0 0.0 0.00 0.00 0.00 90 1018.2
20260831220019 70 270 0.0 0.0 0.00 0.00 0.00 89 1018.2
20260831214504 70 270 0.0 0.0 0.00 0.00 0.00 89 1018.3
20260831213005 70 270 0.0 0.0 0.00 0.00 0.00 89 1018.3
20260831211534 70 270 0.0 0.0 0.00 0.00 0.00 88 1018.4
20260831210017 70 270 0.0 0.0 0.00 0.00 0.00 88 1018.3
20260831204518 71 270 0.0 0.0 0.00 0.00 0.00 87 1018.4
20260831203003 71 270 0.0 0.0 0.00 0.00 0.00 86 1018.4
20260831201507 72 270 0.0 0.0 0.00 0.00 0.00 85 1018.4
20260831200010 73 271 0.0 0.0 0.00 0.00 0.00 86 1018.7
20260831194516 73 271 0.0 0.0 0.00 0.00 0.00 85 1018.7
20260831193032 73 179 0.0 0.0 0.00 0.00 0.00 84 1018.8
20260831191524 72 143 0.0 0.0 0.00 0.00 0.00 83 1019.0
20260831190010 72 143 0.0 0.0 0.00 0.00 0.00 81 1019.1
20260831184514 73 143 0.0 0.0 0.00 0.00 0.00 80 1019.3
20260831183036 74 150 0.0 0.0 0.00 0.00 0.00 79 1019.4
20260831181504 74 150 0.0 0.0 0.00 0.00 0.00 79 1019.3
20260831180009 74 188 0.0 0.0 0.00 0.00 0.00 78 1019.4
20260831174510 73 278 0.0 0.0 0.00 0.00 0.00 80 1019.6
20260831173040 73 281 0.0 0.0 0.00 0.00 0.00 80 1020.0
20260831171521 73 281 0.0 0.0 0.00 0.00 0.00 78 1020.2
20260831170029 74 281 0.0 0.0 0.00 0.00 0.00 77 1020.3
20260831164506 74 283 0.0 0.0 0.00 0.00 0.00 76 1020.1
20260831163034 74 132 0.0 0.0 0.00 0.00 0.00 77 1020.2
20260831161519 74 146 0.0 0.0 0.00 0.00 0.00 75 1020.4
20260831160031 73 1 0.0 4.0 0.00 0.00 0.00 77 1020.4
20260831154523 74 356 0.0 0.0 0.00 0.00 0.00 76 1020.5
20260831153032 75 360 0.0 0.0 0.00 0.00 0.00 76 1020.5
20260831151525 75 205 0.0 0.0 0.00 0.00 0.00 76 1020.5
20260831150020 73 304 0.0 0.0 0.00 0.00 0.00 82 1020.6
20260831144530 72 131 0.0 0.0 0.00 0.00 0.00 81 1020.7
20260831143031 72 212 0.0 0.0 0.00 0.00 0.00 82 1020.6
20260831141514 72 149 0.0 0.0 0.00 0.00 0.00 81 1020.5
20260831140029 71 173 0.0 1.0 0.00 0.00 0.00 84 1020.4
20260831134504 69 201 0.0 3.0 0.00 0.00 0.00 86 1020.4
20260831133005 68 194 0.0 0.0 0.00 0.00 0.00 88 1020.5
20260831131510 67 229 0.0 0.0 0.00 0.00 0.00 89 1020.5
20260831130003 66 281 0.0 0.0 0.00 0.00 0.00 91 1020.5
20260831124515 65 285 0.0 0.0 0.00 0.00 0.00 92 1020.8
20260831123007 64 285 0.0 0.0 0.00 0.00 0.00 93 1020.6
20260831121509 63 285 0.0 0.0 0.00 0.00 0.00 93 1020.6
20260831120017 63 285 0.0 0.0 0.00 0.00 0.00 93 1020.5
20260831114504 63 285 0.0 0.0 0.00 0.00 0.00 93 1020.4
20260831113007 62 285 0.0 0.0 0.00 0.00 0.00 93 1020.5
20260831111509 62 285 0.0 0.0 0.00 0.00 0.00 93 1020.2
20260831110019 62 285 0.0 0.0 0.00 0.00 0.00 93 1020.0
20260831104516 62 285 0.0 0.0 0.00 0.00 0.00 93 1019.9
20260831103007 62 285 0.0 0.0 0.00 0.00 0.00 92 1019.7